Location: Alexandria
(38.8050°N, 77.0470°W)
Time: 04:53:19
(UTC-04:00)

OTV 5 (USA 277) - Visible Passes

Search period start: 20 October 2017 00:00
Search period end: 30 October 2017 00:00
Orbit: 404 x 417 km, 43.0° (Epoch: 07 September)

Date Brightness Start Highest point End Pass type
(mag) Time Alt. Az. Time Alt. Az. Time Alt. Az.
20 Oct ? 19:20:37 10° WNW 19:23:59 69° NNE 19:25:53 23° E visible
20 Oct ? 20:58:17 10° W 20:58:39 12° W 20:58:39 12° W visible
21 Oct ? 20:06:59 10° W 20:10:08 38° SSW 20:10:11 38° SSW visible
22 Oct ? 19:15:48 10° WNW 19:19:09 58° SSW 19:21:50 14° SE visible
23 Oct ? 20:02:52 10° WSW 20:05:03 16° SW 20:06:27 13° S visible
24 Oct ? 19:11:19 10° W 19:14:08 25° SW 19:16:57 10° SSE visible
26 Oct ? 19:08:43 10° SW 19:08:58 10° SW 19:09:13 10° SW visible
